Regional Weather Roundup
Issued by NWS State College, PA

Home | Current Version | Previous Version | Graphics & Text | Print | Product List | Glossary Off
Versions: 1 2 3 4 5 6 7 8 9 10 11 12 13 14 15 16 17 18 19 20 21 22 23 24 25 26 27 28 29 30 31 32 33 34 35 36 37 38 39 40 41 42 43 44 45 46 47 48 49 50

000
ASUS41 KCTP 230303
RWRCTP

REGIONAL WEATHER ROUNDUP
NATIONAL WEATHER SERVICE STATE COLLEGE PA
1100 PM EDT FRI AUG 22 2014

Note: "fair" indicates few or no clouds below 12,000 feet with no
significant weather and/or obstructions to visibility.

* = STATION THAT DOES NOT REPORT PRECIPITATION /E.G. RAIN...SNOW...ETC/
    THUNDER OR FOG.

PAZ002>004-007>009-013>016-020>023-029>032-230400-
WESTERN PENNSYLVANIA

CITY           SKY/WX    TMP DP  RH WIND       PRES   REMARKS
ERIE           CLEAR     71  64  78 CALM      30.00R
MEADVILLE      PTCLDY    67  64  90 NE5       30.02S
FRANKLIN*      MOCLDY    66  64  94 CALM      30.04R
NEW CASTLE     NOT AVBL
BEAVER COUNTY  NOT AVBL
BUTLER*        MOCLDY    70  66  88 CALM      30.02R
PITTSBURGH INT CLOUDY    71  69  93 CALM      30.00R
PITTSBURGH     RAIN      73  70  90 W3        29.99S FOG
INDIANA*       PTCLDY    70  70 100 CALM      30.04S FOG
LATROBE        CLEAR     72  70  94 CALM      30.01S
WASHINGTON CO* CLOUDY    68  66  94 CALM      30.02R
$$

PAZ004>006-010>012-017>019-024>028-033>037-041-042-045-046-049>053-230400-
CENTRAL PENNSYLVANIA

CITY           SKY/WX    TMP DP  RH WIND       PRES   REMARKS
BRADFORD       CLEAR     67  63  87 CALM      30.03F
DUBOIS         CLOUDY    67  66  97 E5        30.02S
CLEARFIELD     CLOUDY    69  68  96 CALM      30.02S FOG
JOHNSTOWN      CLOUDY    67  65  93 S5        30.05S FOG
ALTOONA        MOCLDY    68  68 100 CALM      30.03F FOG
STATE COLLEGE  CLOUDY    68  66  93 CALM      30.02S FOG
WILLIAMSPORT   CLOUDY    72  66  81 E9        29.99S
SELINSGROVE    LGT RAIN  71  68  90 SE3       30.01R FOG
FT INDIANTOWN  CLOUDY    71  71  98 NE5       30.03R
CAPITAL CITY   CLOUDY    73  67  81 SE8       30.01R
HARRISBURG     CLOUDY    73  68  84 SE8       30.00S
YORK           MOCLDY    71  67  87 SE6       30.02R
$$

PAZ038>040-043-044-047-048-054-055-060>062-067>071-230400-
EASTERN PENNSYLVANIA

CITY           SKY/WX    TMP DP  RH WIND       PRES   REMARKS
SCRANTON       LGT RAIN  68  63  84 CALM      30.05R
MOUNT POCONO   CLOUDY    62  59  90 E9        30.10R FOG
ALLENTOWN      CLOUDY    69  58  67 SE6       30.06R
QUAKERTOWN*    MOCLDY    68  63  83 MISG      30.07R
READING        CLOUDY    73  62  68 SE8G17    30.02R
LANCASTER      CLOUDY    71  65  81 E7        30.03R
COATESVILLE    MOCLDY    68  68 100 SE5       30.05S
POTTSTOWN      CLOUDY    70  60  70 CALM      30.06R
BLUE BELL      CLOUDY    70  61  73 E5        30.04S
DOYLESTOWN     CLOUDY    67  60  78 CALM      30.05R
WILLOW GROVE   NOT AVBL
NORTH PHILA    CLOUDY    71  60  68 NE3       30.06R
PHILADELPHIA   CLOUDY    70  61  73 E9        30.04S
$$



USA.gov is the U.S. government's official web portal to all federal, state and local government web resources and services.